TimeEST,TemperatureF,Dew PointF,Humidity,Sea Level PressureIn,VisibilityMPH,Wind Direction,Wind SpeedMPH,Gust SpeedMPH,PrecipitationIn,Events,Conditions,WindDirDegrees,DateUTC
12:51 AM,12.0,5.0,73,30.01,10.0,WSW,6.9,-,N/A,,Partly Cloudy,250,2013-01-02 05:51:00
1:51 AM,9.0,5.0,84,30.02,10.0,Calm,Calm,-,N/A,,Clear,0,2013-01-02 06:51:00
2:51 AM,12.0,5.0,73,30.02,10.0,WSW,8.1,-,N/A,,Clear,250,2013-01-02 07:51:00
3:51 AM,9.0,3.0,77,30.00,10.0,West,6.9,-,N/A,,Clear,270,2013-01-02 08:51:00
4:51 AM,10.0,3.9,76,29.99,10.0,South,3.5,-,N/A,,Scattered Clouds,190,2013-01-02 09:51:00
5:51 AM,7.0,3.9,87,29.99,10.0,Calm,Calm,-,0.00,Snow,Light Snow,0,2013-01-02 10:51:00
6:51 AM,10.9,6.1,81,29.99,10.0,Calm,Calm,-,0.00,Snow,Light Snow,0,2013-01-02 11:51:00
7:51 AM,14.0,8.1,77,29.98,10.0,South,3.5,-,0.00,,Overcast,170,2013-01-02 12:51:00
8:51 AM,17.1,10.0,74,30.00,10.0,Calm,Calm,-,0.00,Snow,Light Snow,0,2013-01-02 13:51:00
9:51 AM,19.9,10.9,68,30.02,10.0,Calm,Calm,-,0.00,,Overcast,0,2013-01-02 14:51:00
10:51 AM,23.0,12.0,63,30.02,10.0,NNW,3.5,-,0.00,Snow,Light Snow,330,2013-01-02 15:51:00
11:51 AM,24.8,14.0,64,29.99,10.0,WNW,15.0,18.4,N/A,,Overcast,300,2013-01-02 16:51:00
12:51 PM,25.0,15.1,66,30.00,10.0,West,12.7,19.6,N/A,,Overcast,280,2013-01-02 17:51:00
1:51 PM,26.1,15.1,63,30.01,10.0,WNW,11.5,-,N/A,,Mostly Cloudy,290,2013-01-02 18:51:00
2:51 PM,26.1,14.0,60,30.03,10.0,WNW,15.0,21.9,N/A,,Mostly Cloudy,290,2013-01-02 19:51:00
3:51 PM,25.0,12.0,58,30.07,10.0,West,15.0,24.2,N/A,,Mostly Cloudy,280,2013-01-02 20:51:00
4:51 PM,21.9,9.0,58,30.09,10.0,West,16.1,21.9,N/A,,Mostly Cloudy,280,2013-01-02 21:51:00
5:51 PM,21.0,7.0,55,30.12,10.0,WNW,13.8,-,N/A,,Scattered Clouds,290,2013-01-02 22:51:00
6:51 PM,19.0,6.1,57,30.14,10.0,NW,9.2,-,N/A,,Partly Cloudy,310,2013-01-02 23:51:00
7:51 PM,14.0,3.9,64,30.16,10.0,NNE,6.9,-,N/A,,Partly Cloudy,20,2013-01-03 00:51:00
8:51 PM,10.0,1.0,67,30.19,10.0,North,6.9,-,N/A,,Clear,10,2013-01-03 01:51:00
9:51 PM,7.0,-2.0,67,30.22,10.0,North,9.2,-,N/A,,Clear,10,2013-01-03 02:51:00
10:51 PM,3.9,-4.0,70,30.25,10.0,NNE,9.2,-,N/A,,Partly Cloudy,20,2013-01-03 03:51:00
11:51 PM,3.0,-6.0,66,30.26,10.0,NNE,6.9,-,N/A,,Partly Cloudy,20,2013-01-03 04:51:00